Weather History for KMTH - October, 2013

Change the Weather History Date:

Saturday, October 19, 2013

  Actual Average Record
Temperature  
Mean Temperature 86 °F 80 °F  
Max Temperature 91 °F 85 °F - ()
Min Temperature 80 °F 75 °F - ()
Degree Days  
Heating Degree Days 0 0  
Month to date heating degree days 0 0  
Since 1 July heating degree days 0 0  
Cooling Degree Days 21 15  
Month to date cooling degree days 346 318  
Year to date cooling degree days 4652 4272  
Growing Degree Days 35 (Base 50)    
Moisture  
Dew Point 74 °F    
Average Humidity 72    
Maximum Humidity 79    
Minimum Humidity 64    
Precipitation  
Precipitation 0.00 in 0.12 in - ()
Month to date precipitation 1.08 3.09  
Year to date precipitation 43.47 39.64  
Snow  
Snow 0.00 in - - ()
Month to date snowfall 0.0  
Since 1 July snowfall 0.0  
Since 1 September snowfall 0.0  
Snow Depth 0.00 in    
Sea Level Pressure  
Sea Level Pressure 29.92 in    
Wind  
Wind Speed 6 mph (SE)    
Max Wind Speed 9 mph    
Max Gust Speed 16 mph    
Visibility 10 miles    
Events      
T = Trace of Precipitation, MM = Missing Value Source: NWS Daily Summary

Daily Weather History Graph

Daily Weather History Graph

Search for Another Location

Airport or City:

Trip Planner

Search our weather history database for the weather conditions in past years. The results will help you decide how hot, cold, wet, or windy it might be!

Date:

Astronomy

Oct. 19, 2013 Rise Set
Actual Time 7:24 AM EDT 6:53 PM EDT
Civil Twilight 7:01 AM EDT 7:16 PM EDT
Nautical Twilight 6:34 AM EDT 7:43 PM EDT
Astronomical Twilight 6:08 AM EDT 8:09 PM EDT
Moon 7:28 PM EDT (10/19) 7:54 AM EDT (10/19)
Length of Visible Light 12h 15m
Length of Day
11h 29m
Waxing Gibbous, 99% of the Moon is Illuminated
Oct 19
Waxing Gibbous
Oct 26
Last Quarter
Nov 3
New
Nov 10
First Quarter
Nov 17
Full

Hourly Weather History & Observations

Time (EDT) Temp. Heat Index Dew Point Humidity Pressure Visibility Wind Dir Wind Speed Gust Speed Precip Events Conditions
12:27 AM 82.4 °F 88.2 °F 73.4 °F 74% 29.94 in 10.0 mi East 9.2 mph - N/A   Overcast
12:53 AM 82.0 °F 87.9 °F 73.9 °F 76% 29.93 in 10.0 mi East 8.1 mph - N/A   Mostly Cloudy
1:01 AM 82.4 °F 88.2 °F 73.4 °F 74% 29.93 in 10.0 mi East 6.9 mph - N/A   Scattered Clouds
1:53 AM 82.0 °F 87.9 °F 73.9 °F 76% 29.92 in 10.0 mi ESE 8.1 mph - N/A   Clear
2:53 AM 82.0 °F 87.9 °F 73.9 °F 76% 29.91 in 10.0 mi ESE 6.9 mph - N/A   Clear
3:53 AM 80.1 °F 84.5 °F 73.9 °F 81% 29.90 in 10.0 mi East 6.9 mph - N/A   Clear
4:53 AM 80.1 °F 84.5 °F 73.9 °F 81% 29.90 in 10.0 mi SE 5.8 mph - N/A   Scattered Clouds
5:53 AM 82.0 °F 87.9 °F 73.9 °F 76% 29.90 in 10.0 mi SE 5.8 mph - N/A   Partly Cloudy
6:53 AM 81.0 °F 86.2 °F 73.9 °F 79% 29.91 in 10.0 mi SE 4.6 mph - N/A   Partly Cloudy
7:53 AM 82.0 °F 87.9 °F 73.9 °F 76% 29.93 in 10.0 mi SE 4.6 mph - N/A   Partly Cloudy
8:53 AM 84.0 °F 91.9 °F 75.0 °F 74% 29.94 in 10.0 mi SSE 4.6 mph - N/A   Partly Cloudy
9:09 AM 84.2 °F 92.3 °F 75.2 °F 74% 29.95 in 10.0 mi SE 4.6 mph - N/A   Mostly Cloudy
9:17 AM 84.2 °F 92.3 °F 75.2 °F 74% 29.95 in 10.0 mi SE 3.5 mph - N/A   Mostly Cloudy
9:53 AM 86.0 °F 95.1 °F 75.0 °F 70% 29.96 in 10.0 mi Variable 3.5 mph - N/A   Mostly Cloudy
10:53 AM 84.9 °F 93.3 °F 75.0 °F 72% 29.96 in 10.0 mi Variable 3.5 mph - N/A   Scattered Clouds
11:53 AM 90.0 °F 101.3 °F 75.9 °F 63% 29.96 in 10.0 mi South 4.6 mph - N/A   Clear
12:53 PM 89.1 °F 100.2 °F 75.9 °F 65% 29.94 in 10.0 mi South 6.9 mph - N/A   Clear
1:53 PM 90.0 °F 101.3 °F 75.9 °F 63% 29.92 in 10.0 mi Variable 3.5 mph - N/A   Clear
2:53 PM 88.0 °F 97.5 °F 75.0 °F 65% 29.90 in 10.0 mi Variable 4.6 mph - N/A   Clear
3:53 PM 88.0 °F 97.5 °F 75.0 °F 65% 29.89 in 10.0 mi South 5.8 mph - N/A   Clear
4:53 PM 84.9 °F 92.1 °F 73.9 °F 69% 29.89 in 10.0 mi Variable 3.5 mph - N/A   Partly Cloudy
5:53 PM 84.9 °F 92.1 °F 73.9 °F 69% 29.89 in 10.0 mi Variable 3.5 mph - N/A   Partly Cloudy
6:53 PM 82.9 °F 89.4 °F 73.9 °F 74% 29.90 in 10.0 mi Calm Calm - N/A   Clear
7:53 PM 82.0 °F 87.9 °F 73.9 °F 76% 29.90 in 10.0 mi Calm Calm - N/A   Clear
8:53 PM 82.0 °F 87.9 °F 73.9 °F 76% 29.92 in 10.0 mi East 3.5 mph - N/A   Clear
9:53 PM 81.0 °F 86.7 °F 75.0 °F 82% 29.94 in 10.0 mi Calm Calm - N/A   Partly Cloudy
10:53 PM 81.0 °F 86.7 °F 75.0 °F 82% 29.94 in 10.0 mi Calm Calm - N/A   Clear
11:53 PM 81.0 °F 86.7 °F 75.0 °F 82% 29.94 in 10.0 mi Calm Calm - N/A   Partly Cloudy